Location: Murray Park
(37.9444°N, 122.5536°W)
Time: 23:12:03
(UTC+00:00)

Daily predictions for brighter satellites

Satellite Brightness Start Highest point End
(mag) Time Altitude Azimuth Time Altitude Azimuth Time Altitude Azimuth
Cosmos 2369 Rocket 3.1 12:09:03 10° NW 12:13:37 26° WSW 12:18:12 10° SSW
ATLAS 2A CENTAUR R/B 3.9 12:01:26 10° WSW 12:15:23 40° S 12:21:07 10° ESE
Cosmos 1190 Rocket 4.1 12:12:14 10° NNW 12:17:26 59° WSW 12:22:37 10° S
Cosmos 1869 3.3 12:15:03 10° N 12:18:59 84° E 12:22:50 10° S
CZ-4C R/B 3.8 12:15:44 10° SSE 12:19:16 61° ENE 12:23:00 10° N
Nadezhda 3 Rocket 4.1 12:13:14 10° S 12:19:34 87° W 12:25:52 10° N
IRS-P3 4.4 12:15:17 10° N 12:20:27 52° WNW 12:25:36 10° SSW
Cosmos 1656 Rocket 4.4 12:15:54 10° NW 12:20:28 28° WSW 12:25:03 10° SSW
Helios 1B rocket 4.1 12:19:51 10° NNW 12:22:42 19° WNW 12:25:32 10° WSW
Meteor 1-29 3.5 12:21:49 10° N 12:24:51 37° WNW 12:27:53 10° SW
Cosmos 1758 Rocket 3.9 12:20:34 10° S 12:24:55 69° E 12:29:15 10° NNE
Spot 4 Rocket 4.2 12:21:43 10° NNE 12:26:53 84° ESE 12:32:00 10° SSW
